Preview of NWS' New Version of Forecast
This preview is not operational and should not be used for support decisions.

Regional Weather Roundup (RWR)

Issued by National Weather Service (NWS)

                            
000
ASUS44 KJAN 250210
RWRMS 

MISSISSIPPI HOURLY WEATHER ROUNDUP
NATIONAL WEATHER SERVICE JACKSON MS
900 PM CDT SUN MAR 24 2019

NOTE: "FAIR: INDICATES FEW OR NO CLOUDS BELOW 12,000 FEET WITH NO
SIGNIFICANT WEATHER AND/OR OBSTRUCTIONS TO VISIBILITY.

MSZ001>002-007>008-010>013-018>021-025>028-034>036-250300-
NORTHWEST MISSISSIPPI
  
CITY           SKY/WX    TMP DP  RH WIND       PRES   REMARKS
BATESVILLE     CLOUDY    59  50  72 CALM      30.02S                  
CLARKSDALE     CLOUDY    64  64 100 CALM      30.03S                  
CLEVELAND      MOCLDY    66  51  59 S9        30.03R                  
GREENWOOD      FAIR      64  45  49 S3        30.04F                  
GREENVILLE     FAIR      65  50  58 S9        30.02S                  
OLIVE BRANCH   CLOUDY    63  54  72 S5        30.03F                  
OXFORD         MOCLDY    61  43  51 S5        30.05S                  
TUNICA           N/A     61  57  88 S5        30.03S                  
WINONA         FAIR      63  45  52 CALM      30.06R                  
$$

MSZ003>006-009-014>017-022>024-029>033-037>039-250300-
NORTHEAST MISSISSIPPI
  
CITY           SKY/WX    TMP DP  RH WIND       PRES   REMARKS
ABERDEEN       MOCLDY    57  52  82 CALM      30.08S                  
COLUMBUS AFB   CLOUDY    56  46  69 CALM      30.07S HAZE             
CORINTH        FAIR      63  43  48 SE6       30.04S                  
GOLDN TRIANGLE FAIR      63  45  51 S6        30.08F                  
STARKVILLE     FAIR      59  46  63 CALM      30.09S                  
TUPELO         FAIR      62  42  47 S6        30.05F                  
$$

MSZ040-058-250300-
CENTRAL MISSISSIPPI
  
CITY           SKY/WX    TMP DP  RH WIND       PRES   REMARKS
JACKSON INTL   FAIR      59  47  64 SE7       30.07F                  
JACKSON HAWKNS FAIR      66  46  48 SE3       30.08S                  
MADISON        FAIR      61  46  59 CALM      30.07S                  
MERIDIAN KEY   FAIR      62  51  67 CALM      30.10S                  
MERIDIAN NAS   MOCLDY    65  48  54 SE3       30.10F                  
RAYMOND        FAIR      57  55  94 CALM      30.07S                  
VICKSBURG VKS  CLOUDY    63  52  67 CALM      30.07S                  
$$

MSZ059>079-250300-
SOUTH MISSISSIPPI
  
CITY           SKY/WX    TMP DP  RH WIND       PRES   REMARKS
HATTIESBURG    FAIR      66  55  67 S10       30.13S                  
LAUREL         MOCLDY    67  51  57 S10       30.11S                  
MCCOMB         CLOUDY    68  55  63 S9        30.11R                  
NATCHEZ        MOCLDY    69  55  60 S8        30.08F                  
PINE BELT      FAIR      66  55  67 S8        30.12S                  
$$

MSZ080>082-250300-
COASTAL MISSISSIPPI
  
CITY           SKY/WX    TMP DP  RH WIND       PRES   REMARKS
BAY ST LOUIS   CLEAR     63  59  88 CALM      30.15S                  
BILOXI         FAIR      65  58  79 S7        30.15S                  
PASCAGOULA     FAIR      59  54  83 SE3       30.16S                  
GULFPORT       FAIR      64  59  83 S6        30.15S                  
$$

LAZ007>009-015>016-023>026-250300-
NORTHEAST LOUISIANA
  
CITY           SKY/WX    TMP DP  RH WIND       PRES   REMARKS
BASTROP        FAIR      65  56  73 CALM      30.05R                  
TALLULAH/VBURG FAIR      63  50  62 SE5       30.06F                  
VIDALIA        FAIR      68  55  62 SE9       30.07S                  
$$